This is the latest recevied weather packets stored in our database for station/object K1AWR. If no packets are shown the sender has not sent any weather packets the latest 10 day(s).
| Time | Temp. | Humidity | Pressure | Rain* | Wind** | Luminosity | Snow |
|---|---|---|---|---|---|---|---|
| 1777626829 | 5.56° C | 80% | 1010.6 hPa | 0 mm | - | 0 W/m² | - |
| 1777626525 | 6.11° C | 78% | 1010.5 hPa | 0 mm | - | 0 W/m² | - |
| 1777626220 | 6.11° C | 76% | 1010.5 hPa | 0 mm | - | 0 W/m² | - |
| 1777625918 | 6.11° C | 75% | 1010.5 hPa | 0 mm | - | 0 W/m² | - |
| 1777625615 | 6.11° C | 76% | 1010.4 hPa | 0 mm | - | 0 W/m² | - |
| 1777625310 | 5.56° C | 79% | 1010.6 hPa | 0 mm | - | 0 W/m² | - |
| 1777625007 | 5.56° C | 78% | 1010.5 hPa | 0 mm | - | 0 W/m² | - |
| 1777624705 | 5.56° C | 81% | 1010.6 hPa | 0 mm | - | 0 W/m² | - |
| 1777624405 | 5.56° C | 80% | 1010.6 hPa | 0 mm | - | 0 W/m² | - |
| 1777624102 | 5.56° C | 80% | 1010.5 hPa | 0 mm | - | 0 W/m² | - |
| 1777623799 | 6.11° C | 77% | 1010.5 hPa | 0 mm | - | 0 W/m² | - |
| 1777623495 | 6.67° C | 75% | 1010.5 hPa | 0 mm | - | 0 W/m² | - |
| 1777623193 | 6.67° C | 72% | 1010.4 hPa | 0 mm | - | 0 W/m² | - |
| 1777622890 | 6.67° C | 73% | 1010.5 hPa | 0 mm | - | 0 W/m² | - |
| 1777622586 | 6.67° C | 73% | 1010.3 hPa | 0 mm | - | 0 W/m² | - |
| 1777622283 | 6.67° C | 73% | 1010.5 hPa | 0 mm | - | 0 W/m² | - |
| 1777621981 | 6.67° C | 74% | 1010.5 hPa | 0 mm | - | 0 W/m² | - |
| 1777621681 | 6.67° C | 75% | 1010.4 hPa | 0 mm | - | 0 W/m² | - |
| 1777621377 | 6.11° C | 76% | 1010.4 hPa | 0 mm | - | 0 W/m² | - |
| 1777621073 | 5.56° C | 83% | 1010.2 hPa | 0 mm | - | 0 W/m² | - |
| 1777620769 | 5.56° C | 81% | 1010.3 hPa | 0 mm | - | 0 W/m² | - |
| 1777620466 | 6.11° C | 80% | 1010.4 hPa | 0 mm | - | 0 W/m² | - |
| 1777620163 | 6.11° C | 80% | 1010.3 hPa | 0 mm | - | 0 W/m² | - |
| 1777619859 | 6.67° C | 77% | 1010.3 hPa | 0 mm | - | 0 W/m² | - |
| 1777619555 | 6.67° C | 75% | 1010.2 hPa | 0 mm | - | 0 W/m² | - |
* Rain latest hour (hover to see other rain measurements)
** Current wind speed in m/s (hover to see current wind gust speed)